Time,TemperatureF,DewpointF,PressureIn,WindDirection,WindDirectionDegrees,WindSpeedMPH,WindSpeedGustMPH,Humidity,HourlyPrecipIn,Conditions,Clouds,dailyrainin,SoftwareType,DateUTC
2013-07-08 00:00:00,63.0,60.0,29.92,East,90,5.0,6.0,90,0.00,,,-99.99,Weather View 32 v60,2013-07-08 05:00:00,
2013-07-08 00:05:00,63.0,60.0,29.92,NE,45,2.0,7.0,90,0.00,,,-99.99,Weather View 32 v60,2013-07-08 05:05:00,
2013-07-08 00:10:00,63.0,60.0,29.92,East,90,3.0,8.0,90,0.00,,,-99.99,Weather View 32 v60,2013-07-08 05:10:00,
2013-07-08 00:15:00,63.0,60.0,29.92,East,90,2.0,8.0,90,0.00,,,-99.99,Weather View 32 v60,2013-07-08 05:15:00,
2013-07-08 00:20:00,63.0,60.0,29.92,East,90,3.0,8.0,90,0.00,,,-99.99,Weather View 32 v60,2013-07-08 05:20:00,
2013-07-08 00:25:00,63.0,60.0,29.92,SE,135,3.0,8.0,90,0.00,,,-99.99,Weather View 32 v60,2013-07-08 05:25:00,
2013-07-08 00:30:00,62.0,59.0,29.92,ESE,112,3.0,8.0,90,0.00,,,-99.99,Weather View 32 v60,2013-07-08 05:30:00,
2013-07-08 00:40:00,62.0,59.0,29.93,East,90,5.0,10.0,90,0.00,,,-99.99,Weather View 32 v60,2013-07-08 05:40:00,
2013-07-08 00:45:00,62.0,59.0,29.93,SE,135,3.0,10.0,90,0.00,,,-99.99,Weather View 32 v60,2013-07-08 05:45:00,
2013-07-08 00:50:00,62.0,59.0,29.93,North,0,3.0,10.0,90,0.00,,,-99.99,Weather View 32 v60,2013-07-08 05:50:00,
2013-07-08 00:55:00,62.0,59.0,29.93,NE,45,3.0,10.0,90,0.00,,,-99.99,Weather View 32 v60,2013-07-08 05:55:00,
2013-07-08 01:00:00,61.0,58.0,29.93,NE,45,3.0,10.0,90,0.00,,,-99.99,Weather View 32 v60,2013-07-08 06:00:00,
2013-07-08 01:05:00,61.0,58.0,29.93,NNE,22,1.0,10.0,90,0.00,,,-99.99,Weather View 32 v60,2013-07-08 06:05:00,
2013-07-08 01:10:00,61.0,58.0,29.93,ESE,112,4.0,10.0,90,0.00,,,-99.99,Weather View 32 v60,2013-07-08 06:10:00,
2013-07-08 01:15:00,61.0,58.0,29.93,NNE,22,2.0,10.0,90,0.00,,,-99.99,Weather View 32 v60,2013-07-08 06:15:00,
2013-07-08 01:20:00,61.0,58.0,29.93,ENE,68,1.0,10.0,90,0.00,,,-99.99,Weather View 32 v60,2013-07-08 06:20:00,
2013-07-08 01:30:00,61.0,58.0,29.92,North,0,1.0,10.0,90,0.00,,,-99.99,Weather View 32 v60,2013-07-08 06:30:00,
2013-07-08 01:35:00,61.0,58.0,29.93,NNE,22,2.0,9.0,90,0.00,,,-99.99,Weather View 32 v60,2013-07-08 06:35:00,
2013-07-08 01:40:00,61.0,58.0,29.92,NNW,338,4.0,9.0,90,0.00,,,-99.99,Weather View 32 v60,2013-07-08 06:40:00,
2013-07-08 01:45:00,61.0,58.3,29.93,NNW,338,2.0,9.0,91,0.00,,,-99.99,Weather View 32 v60,2013-07-08 06:45:00,
2013-07-08 01:50:00,61.0,58.3,29.93,North,0,3.0,10.0,91,0.00,,,-99.99,Weather View 32 v60,2013-07-08 06:50:00,
2013-07-08 01:55:00,61.0,58.3,29.93,NNW,338,3.0,10.0,91,0.00,,,-99.99,Weather View 32 v60,2013-07-08 06:55:00,
2013-07-08 02:00:00,61.0,58.3,29.93,NNE,22,5.0,10.0,91,0.00,,,-99.99,Weather View 32 v60,2013-07-08 07:00:00,
2013-07-08 02:05:00,61.0,58.3,29.93,NW,315,5.0,10.0,91,0.00,,,-99.99,Weather View 32 v60,2013-07-08 07:05:00,
2013-07-08 02:10:00,61.0,58.3,29.93,North,0,3.0,11.0,91,0.00,,,-99.99,Weather View 32 v60,2013-07-08 07:10:00,
2013-07-08 02:15:00,60.0,57.4,29.94,North,0,2.0,11.0,91,0.00,,,-99.99,Weather View 32 v60,2013-07-08 07:15:00,
2013-07-08 02:20:00,60.0,57.4,29.94,North,0,4.0,11.0,91,0.00,,,-99.99,Weather View 32 v60,2013-07-08 07:20:00,
2013-07-08 02:25:00,60.0,57.4,29.94,NNW,338,5.0,11.0,91,0.00,,,-99.99,Weather View 32 v60,2013-07-08 07:25:00,
2013-07-08 02:30:00,59.0,56.4,29.94,ENE,68,3.0,11.0,91,0.00,,,-99.99,Weather View 32 v60,2013-07-08 07:30:00,
2013-07-08 02:35:00,59.0,56.4,29.95,North,0,5.0,11.0,91,0.00,,,-99.99,Weather View 32 v60,2013-07-08 07:35:00,
2013-07-08 02:45:00,58.0,55.4,29.95,North,0,4.0,11.0,91,0.00,,,-99.99,Weather View 32 v60,2013-07-08 07:45:00,
2013-07-08 02:50:00,58.0,55.4,29.96,ESE,112,2.0,11.0,91,0.00,,,-99.99,Weather View 32 v60,2013-07-08 07:50:00,
2013-07-08 02:55:00,58.0,55.4,29.96,NE,45,5.0,11.0,91,0.00,,,-99.99,Weather View 32 v60,2013-07-08 07:55:00,
2013-07-08 03:00:00,58.0,55.4,29.95,NE,45,2.0,11.0,91,0.00,,,-99.99,Weather View 32 v60,2013-07-08 08:00:00,
2013-07-08 03:10:00,57.0,54.4,29.95,WNW,292,1.0,10.0,91,0.00,,,-99.99,Weather View 32 v60,2013-07-08 08:10:00,
2013-07-08 03:15:00,57.0,54.4,29.95,ESE,112,3.0,10.0,91,0.00,,,-99.99,Weather View 32 v60,2013-07-08 08:15:00,
2013-07-08 03:20:00,57.0,54.4,29.95,East,90,3.0,10.0,91,0.00,,,-99.99,Weather View 32 v60,2013-07-08 08:20:00,
2013-07-08 03:25:00,57.0,54.4,29.96,ENE,68,3.0,10.0,91,0.00,,,-99.99,Weather View 32 v60,2013-07-08 08:25:00,
2013-07-08 03:30:00,57.0,54.4,29.96,NNE,22,2.0,10.0,91,0.00,,,-99.99,Weather View 32 v60,2013-07-08 08:30:00,
2013-07-08 03:35:00,57.0,54.4,29.96,NE,45,2.0,9.0,91,0.00,,,-99.99,Weather View 32 v60,2013-07-08 08:35:00,
2013-07-08 03:40:00,56.0,53.4,29.96,NE,45,5.0,9.0,91,0.00,,,-99.99,Weather View 32 v60,2013-07-08 08:40:00,
2013-07-08 03:45:00,56.0,53.4,29.96,NNE,22,3.0,9.0,91,0.00,,,-99.99,Weather View 32 v60,2013-07-08 08:45:00,
2013-07-08 03:50:00,56.0,53.7,29.96,ENE,68,2.0,9.0,92,0.00,,,-99.99,Weather View 32 v60,2013-07-08 08:50:00,
2013-07-08 03:55:00,56.0,53.7,29.96,SE,135,1.0,9.0,92,0.00,,,-99.99,Weather View 32 v60,2013-07-08 08:55:00,
2013-07-08 04:00:00,56.0,53.7,29.96,North,0,1.0,9.0,92,0.00,,,-99.99,Weather View 32 v60,2013-07-08 09:00:00,
2013-07-08 04:10:00,56.0,53.7,29.96,East,90,2.0,9.0,92,0.00,,,-99.99,Weather View 32 v60,2013-07-08 09:10:00,
2013-07-08 04:15:00,56.0,53.7,29.96,ENE,68,3.0,9.0,92,0.00,,,-99.99,Weather View 32 v60,2013-07-08 09:15:00,
2013-07-08 04:20:00,55.0,52.4,29.97,NE,45,3.0,9.0,91,0.00,,,-99.99,Weather View 32 v60,2013-07-08 09:20:00,
2013-07-08 04:30:00,55.0,52.7,29.96,NE,45,6.0,9.0,92,0.00,,,-99.99,Weather View 32 v60,2013-07-08 09:30:00,
2013-07-08 04:40:00,55.0,52.7,29.96,East,90,4.0,8.0,92,0.00,,,-99.99,Weather View 32 v60,2013-07-08 09:40:00,
2013-07-08 04:45:00,55.0,52.7,29.97,NE,45,3.0,9.0,92,0.00,,,-99.99,Weather View 32 v60,2013-07-08 09:45:00,
2013-07-08 04:50:00,55.0,52.7,29.97,East,90,4.0,9.0,92,0.00,,,-99.99,Weather View 32 v60,2013-07-08 09:50:00,
2013-07-08 04:55:00,55.0,52.7,29.97,NNW,338,1.0,9.0,92,0.00,,,-99.99,Weather View 32 v60,2013-07-08 09:55:00,
2013-07-08 05:00:00,55.0,52.7,29.97,SE,135,2.0,9.0,92,0.00,,,-99.99,Weather View 32 v60,2013-07-08 10:00:00,
2013-07-08 05:05:00,55.0,52.7,29.97,NNE,22,1.0,9.0,92,0.00,,,-99.99,Weather View 32 v60,2013-07-08 10:05:00,
2013-07-08 05:15:00,54.0,51.7,29.97,NNE,22,3.0,9.0,92,0.00,,,-99.99,Weather View 32 v60,2013-07-08 10:15:00,
2013-07-08 05:20:00,54.0,51.7,29.97,East,90,2.0,9.0,92,0.00,,,-99.99,Weather View 32 v60,2013-07-08 10:20:00,
2013-07-08 05:25:00,54.0,51.7,29.97,WNW,292,2.0,9.0,92,0.00,,,-99.99,Weather View 32 v60,2013-07-08 10:25:00,
2013-07-08 05:30:00,54.0,51.7,29.98,NNE,22,2.0,9.0,92,0.00,,,-99.99,Weather View 32 v60,2013-07-08 10:30:00,
2013-07-08 05:35:00,54.0,51.7,29.97,North,0,2.0,9.0,92,0.00,,,-99.99,Weather View 32 v60,2013-07-08 10:35:00,
2013-07-08 05:40:00,54.0,51.7,29.97,SW,225,1.0,9.0,92,0.00,,,-99.99,Weather View 32 v60,2013-07-08 10:40:00,
2013-07-08 05:45:00,54.0,51.7,29.97,West,270,1.0,8.0,92,0.00,,,-99.99,Weather View 32 v60,2013-07-08 10:45:00,
2013-07-08 05:55:00,55.0,52.7,29.97,East,90,2.0,8.0,92,0.00,,,-99.99,Weather View 32 v60,2013-07-08 10:55:00,
2013-07-08 06:00:00,55.0,52.7,29.97,SE,135,2.0,8.0,92,0.00,,,-99.99,Weather View 32 v60,2013-07-08 11:00:00,
2013-07-08 06:05:00,55.0,52.7,29.98,SW,225,1.0,8.0,92,0.00,,,-99.99,Weather View 32 v60,2013-07-08 11:05:00,
2013-07-08 06:15:00,55.0,52.7,29.98,NNE,22,3.0,8.0,92,0.00,,,-99.99,Weather View 32 v60,2013-07-08 11:15:00,
2013-07-08 06:25:00,55.0,52.7,29.98,SE,135,1.0,8.0,92,0.00,,,-99.99,Weather View 32 v60,2013-07-08 11:25:00,
2013-07-08 06:30:00,55.0,52.7,29.98,NNW,338,2.0,8.0,92,0.00,,,-99.99,Weather View 32 v60,2013-07-08 11:30:00,
2013-07-08 06:35:00,55.0,52.7,29.99,North,0,3.0,8.0,92,0.00,,,-99.99,Weather View 32 v60,2013-07-08 11:35:00,
2013-07-08 06:40:00,55.0,52.7,29.99,NNE,22,3.0,8.0,92,0.00,,,-99.99,Weather View 32 v60,2013-07-08 11:40:00,
2013-07-08 06:50:00,55.0,52.7,29.98,NE,45,2.0,8.0,92,0.00,,,-99.99,Weather View 32 v60,2013-07-08 11:50:00,
2013-07-08 06:55:00,55.0,52.7,29.98,NNW,338,1.0,8.0,92,0.00,,,-99.99,Weather View 32 v60,2013-07-08 11:55:00,
2013-07-08 07:00:00,55.0,52.7,29.99,SE,135,1.0,8.0,92,0.00,,,-99.99,Weather View 32 v60,2013-07-08 12:00:00,
2013-07-08 07:06:00,55.0,52.7,29.99,NW,315,2.0,8.0,92,0.00,,,-99.99,Weather View 32 v60,2013-07-08 12:06:00,
2013-07-08 07:15:00,55.0,52.7,29.98,West,270,1.0,8.0,92,0.00,,,-99.99,Weather View 32 v60,2013-07-08 12:15:00,
2013-07-08 07:20:00,55.0,52.7,29.99,North,0,4.0,8.0,92,0.00,,,-99.99,Weather View 32 v60,2013-07-08 12:20:00,
2013-07-08 07:25:00,55.0,52.7,30.00,NNE,22,3.0,8.0,92,0.00,,,-99.99,Weather View 32 v60,2013-07-08 12:25:00,
2013-07-08 07:30:00,55.0,52.7,29.99,NE,45,1.0,8.0,92,0.00,,,-99.99,Weather View 32 v60,2013-07-08 12:30:00,
2013-07-08 07:35:00,55.0,52.7,29.99,NE,45,1.0,8.0,92,0.00,,,-99.99,Weather View 32 v60,2013-07-08 12:35:00,
2013-07-08 07:45:00,55.0,53.0,29.99,East,90,2.0,8.0,93,0.00,,,-99.99,Weather View 32 v60,2013-07-08 12:45:00,
2013-07-08 07:55:00,56.0,54.0,30.00,NNE,22,3.0,6.0,93,0.00,,,-99.99,Weather View 32 v60,2013-07-08 12:55:00,
2013-07-08 08:00:00,56.0,54.0,30.01,NNE,22,3.0,6.0,93,0.00,,,-99.99,Weather View 32 v60,2013-07-08 13:00:00,
2013-07-08 08:05:00,56.0,54.0,30.00,North,0,2.0,6.0,93,0.00,,,-99.99,Weather View 32 v60,2013-07-08 13:05:00,
2013-07-08 08:10:00,56.0,54.0,30.00,NE,45,2.0,6.0,93,0.00,,,-99.99,Weather View 32 v60,2013-07-08 13:10:00,
2013-07-08 08:15:00,56.0,54.0,30.01,ESE,112,3.0,6.0,93,0.00,,,-99.99,Weather View 32 v60,2013-07-08 13:15:00,
2013-07-08 08:20:00,56.0,54.0,30.00,NE,45,1.0,6.0,93,0.00,,,-99.99,Weather View 32 v60,2013-07-08 13:20:00,
2013-07-08 08:25:00,56.0,53.7,30.00,NNE,22,4.0,6.0,92,0.00,,,-99.99,Weather View 32 v60,2013-07-08 13:25:00,
2013-07-08 08:30:00,56.0,54.0,30.00,NNE,22,3.0,6.0,93,0.00,,,-99.99,Weather View 32 v60,2013-07-08 13:30:00,
2013-07-08 08:40:00,56.0,54.0,30.00,East,90,3.0,6.0,93,0.00,,,-99.99,Weather View 32 v60,2013-07-08 13:40:00,
2013-07-08 08:45:00,57.0,55.0,30.01,NE,45,2.0,6.0,93,0.00,,,-99.99,Weather View 32 v60,2013-07-08 13:45:00,
2013-07-08 08:50:00,57.0,55.0,30.00,SE,135,3.0,7.0,93,0.00,,,-99.99,Weather View 32 v60,2013-07-08 13:50:00,
2013-07-08 09:00:00,57.0,55.0,30.01,East,90,5.0,7.0,93,0.00,,,-99.99,Weather View 32 v60,2013-07-08 14:00:00,
2013-07-08 09:05:00,57.0,55.0,30.01,NE,45,3.0,7.0,93,0.00,,,-99.99,Weather View 32 v60,2013-07-08 14:05:00,
2013-07-08 09:10:00,57.0,55.0,30.02,North,0,3.0,7.0,93,0.00,,,-99.99,Weather View 32 v60,2013-07-08 14:10:00,
2013-07-08 09:15:00,58.0,56.0,30.02,NNE,22,2.0,7.0,93,0.00,,,-99.99,Weather View 32 v60,2013-07-08 14:15:00,
2013-07-08 09:25:00,58.0,56.0,30.03,North,0,3.0,7.0,93,0.00,,,-99.99,Weather View 32 v60,2013-07-08 14:25:00,
2013-07-08 09:30:00,58.0,56.0,30.02,East,90,2.0,7.0,93,0.00,,,-99.99,Weather View 32 v60,2013-07-08 14:30:00,
2013-07-08 09:35:00,59.0,57.0,30.02,NE,45,3.0,7.0,93,0.00,,,-99.99,Weather View 32 v60,2013-07-08 14:35:00,
2013-07-08 09:40:00,59.0,57.0,30.02,NE,45,3.0,7.0,93,0.00,,,-99.99,Weather View 32 v60,2013-07-08 14:40:00,
2013-07-08 09:45:00,59.0,57.0,30.02,North,0,2.0,7.0,93,0.00,,,-99.99,Weather View 32 v60,2013-07-08 14:45:00,
2013-07-08 09:50:00,59.0,57.0,30.02,South,180,1.0,7.0,93,0.00,,,-99.99,Weather View 32 v60,2013-07-08 14:50:00,
2013-07-08 09:55:00,59.0,57.0,30.02,NE,45,3.0,7.0,93,0.00,,,-99.99,Weather View 32 v60,2013-07-08 14:55:00,
2013-07-08 10:00:00,60.0,58.0,30.03,East,90,3.0,7.0,93,0.00,,,-99.99,Weather View 32 v60,2013-07-08 15:00:00,
2013-07-08 10:05:00,60.0,58.0,30.03,ENE,68,2.0,7.0,93,0.00,,,-99.99,Weather View 32 v60,2013-07-08 15:05:00,
2013-07-08 10:10:00,60.0,58.0,30.03,East,90,3.0,7.0,93,0.00,,,-99.99,Weather View 32 v60,2013-07-08 15:10:00,
2013-07-08 10:15:00,60.0,58.0,30.03,NNE,22,1.0,7.0,93,0.00,,,-99.99,Weather View 32 v60,2013-07-08 15:15:00,
2013-07-08 10:25:00,61.0,59.0,30.03,ESE,112,2.0,7.0,93,0.00,,,-99.99,Weather View 32 v60,2013-07-08 15:25:00,
2013-07-08 10:30:00,61.0,58.7,30.03,SE,135,2.0,7.0,92,0.00,,,-99.99,Weather View 32 v60,2013-07-08 15:30:00,
2013-07-08 10:40:00,61.0,58.7,30.02,East,90,8.0,8.0,92,0.00,,,-99.99,Weather View 32 v60,2013-07-08 15:40:00,
2013-07-08 10:45:00,62.0,59.6,30.03,ENE,68,3.0,8.0,92,0.00,,,-99.99,Weather View 32 v60,2013-07-08 15:45:00,
2013-07-08 10:50:00,62.0,59.6,30.03,South,180,1.0,8.0,92,0.00,,,-99.99,Weather View 32 v60,2013-07-08 15:50:00,
2013-07-08 10:55:00,62.0,59.6,30.03,South,180,2.0,8.0,92,0.00,,,-99.99,Weather View 32 v60,2013-07-08 15:55:00,
2013-07-08 11:00:00,63.0,60.6,30.03,NNE,22,1.0,8.0,92,0.00,,,-99.99,Weather View 32 v60,2013-07-08 16:00:00,
2013-07-08 11:08:00,63.0,60.6,30.03,East,90,3.0,8.0,92,0.00,,,-99.99,Weather View 32 v60,2013-07-08 16:08:00,
2013-07-08 11:15:00,64.0,61.3,30.02,North,0,2.0,8.0,91,0.00,,,-99.99,Weather View 32 v60,2013-07-08 16:15:00,
2013-07-08 11:20:00,64.0,61.3,30.02,NE,45,4.0,8.0,91,0.00,,,-99.99,Weather View 32 v60,2013-07-08 16:20:00,
2013-07-08 11:25:00,65.0,62.0,30.02,NE,45,5.0,8.0,90,0.00,,,-99.99,Weather View 32 v60,2013-07-08 16:25:00,
2013-07-08 11:30:00,65.0,62.0,30.02,NNW,338,3.0,8.0,90,0.00,,,-99.99,Weather View 32 v60,2013-07-08 16:30:00,
2013-07-08 11:35:00,66.0,62.7,30.02,ENE,68,3.0,8.0,89,0.00,,,-99.99,Weather View 32 v60,2013-07-08 16:35:00,
2013-07-08 11:45:00,67.0,63.3,30.02,NE,45,2.0,7.0,88,0.00,,,-99.99,Weather View 32 v60,2013-07-08 16:45:00,
2013-07-08 11:50:00,68.0,64.3,30.01,NNE,22,2.0,7.0,88,0.00,,,-99.99,Weather View 32 v60,2013-07-08 16:50:00,
2013-07-08 11:55:00,69.0,65.0,30.01,NNE,22,3.0,7.0,87,0.00,,,-99.99,Weather View 32 v60,2013-07-08 16:55:00,
2013-07-08 12:00:00,69.0,64.6,30.01,NNE,22,4.0,7.0,86,0.00,,,-99.99,Weather View 32 v60,2013-07-08 17:00:00,
2013-07-08 12:05:00,70.0,65.3,30.01,ESE,112,5.0,7.0,85,0.00,,,-99.99,Weather View 32 v60,2013-07-08 17:05:00,
2013-07-08 12:11:00,71.0,65.9,30.01,NNE,22,5.0,7.0,84,0.00,,,-99.99,Weather View 32 v60,2013-07-08 17:11:00,
2013-07-08 12:20:00,71.0,65.6,30.01,North,0,2.0,7.0,83,0.00,,,-99.99,Weather View 32 v60,2013-07-08 17:20:00,
2013-07-08 12:35:00,72.0,66.2,30.01,North,0,3.0,8.0,82,0.00,,,-99.99,Weather View 32 v60,2013-07-08 17:35:00,
2013-07-08 12:40:00,72.0,65.5,30.01,East,90,4.0,8.0,80,0.00,,,-99.99,Weather View 32 v60,2013-07-08 17:40:00,
2013-07-08 12:55:00,73.0,66.1,30.00,NNE,22,3.0,8.0,79,0.00,,,-99.99,Weather View 32 v60,2013-07-08 17:55:00,
2013-07-08 13:01:00,73.0,66.1,30.00,NNE,22,3.0,8.0,79,0.00,,,-99.99,Weather View 32 v60,2013-07-08 18:01:00,
2013-07-08 13:09:00,73.0,65.7,30.00,SE,135,3.0,8.0,78,0.00,,,-99.99,Weather View 32 v60,2013-07-08 18:09:00,
2013-07-08 13:15:00,73.0,65.3,29.99,East,90,6.0,8.0,77,0.00,,,-99.99,Weather View 32 v60,2013-07-08 18:15:00,
2013-07-08 13:25:00,73.0,65.0,29.99,NE,45,5.0,9.0,76,0.00,,,-99.99,Weather View 32 v60,2013-07-08 18:25:00,
2013-07-08 13:30:00,74.0,65.9,29.99,WNW,292,5.0,9.0,76,0.00,,,-99.99,Weather View 32 v60,2013-07-08 18:30:00,
2013-07-08 13:35:00,74.0,65.5,29.99,South,180,3.0,9.0,75,0.00,,,-99.99,Weather View 32 v60,2013-07-08 18:35:00,
2013-07-08 13:40:00,74.0,65.9,29.99,ENE,68,3.0,9.0,76,0.00,,,-99.99,Weather View 32 v60,2013-07-08 18:40:00,
2013-07-08 13:50:00,74.0,65.5,29.99,ENE,68,2.0,9.0,75,0.00,,,-99.99,Weather View 32 v60,2013-07-08 18:50:00,
2013-07-08 13:55:00,75.0,66.9,29.99,SE,135,1.0,9.0,76,0.00,,,-99.99,Weather View 32 v60,2013-07-08 18:55:00,
2013-07-08 14:00:00,76.0,67.1,29.99,East,90,4.0,9.0,74,0.00,,,-99.99,Weather View 32 v60,2013-07-08 19:00:00,
2013-07-08 14:10:00,76.0,66.7,29.99,NNE,22,4.0,9.0,73,0.00,,,-99.99,Weather View 32 v60,2013-07-08 19:10:00,
2013-07-08 14:15:00,77.0,66.8,29.99,ESE,112,3.0,9.0,71,0.00,,,-99.99,Weather View 32 v60,2013-07-08 19:15:00,
2013-07-08 14:26:00,77.0,66.8,29.99,WNW,292,2.0,9.0,71,0.00,,,-99.99,Weather View 32 v60,2013-07-08 19:26:00,
2013-07-08 14:35:00,77.0,66.8,29.99,NE,45,1.0,7.0,71,0.00,,,-99.99,Weather View 32 v60,2013-07-08 19:35:00,
2013-07-08 14:41:00,77.0,67.2,29.99,SSW,202,2.0,7.0,72,0.00,,,-99.99,Weather View 32 v60,2013-07-08 19:41:00,
2013-07-08 14:46:00,78.0,67.8,29.99,SE,135,3.0,7.0,71,0.00,,,-99.99,Weather View 32 v60,2013-07-08 19:46:00,
2013-07-08 14:55:00,78.0,67.4,29.98,South,180,3.0,7.0,70,0.00,,,-99.99,Weather View 32 v60,2013-07-08 19:55:00,
2013-07-08 15:00:00,78.0,66.5,29.98,ESE,112,2.0,7.0,68,0.00,,,-99.99,Weather View 32 v60,2013-07-08 20:00:00,
2013-07-08 15:06:00,78.0,67.4,29.98,ENE,68,2.0,8.0,70,0.00,,,-99.99,Weather View 32 v60,2013-07-08 20:06:00,
2013-07-08 15:15:00,78.0,67.0,29.98,North,0,3.0,8.0,69,0.00,,,-99.99,Weather View 32 v60,2013-07-08 20:15:00,
2013-07-08 15:25:00,78.0,66.5,29.97,NNW,338,3.0,8.0,68,0.00,,,-99.99,Weather View 32 v60,2013-07-08 20:25:00,
2013-07-08 15:35:00,79.0,67.9,29.97,East,90,4.0,8.0,69,0.00,,,-99.99,Weather View 32 v60,2013-07-08 20:35:00,
2013-07-08 16:00:00,81.0,68.1,29.97,NE,45,4.0,8.0,65,0.00,,,-99.99,Weather View 32 v60,2013-07-08 21:00:00,
2013-07-08 16:11:00,81.0,67.6,29.97,North,0,3.0,8.0,64,0.00,,,-99.99,Weather View 32 v60,2013-07-08 21:11:00,
2013-07-08 16:20:00,79.0,66.2,29.97,WNW,292,1.0,8.0,65,0.00,,,-99.99,Weather View 32 v60,2013-07-08 21:20:00,
2013-07-08 16:30:00,81.0,68.5,29.97,ENE,68,3.0,8.0,66,0.00,,,-99.99,Weather View 32 v60,2013-07-08 21:30:00,
2013-07-08 16:50:00,82.0,68.1,29.97,WNW,292,2.0,6.0,63,0.00,,,-99.99,Weather View 32 v60,2013-07-08 21:50:00,
2013-07-08 16:55:00,82.0,67.6,29.97,NW,315,1.0,6.0,62,0.00,,,-99.99,Weather View 32 v60,2013-07-08 21:55:00,
2013-07-08 17:00:00,82.0,67.2,29.97,NNE,22,3.0,6.0,61,0.00,,,-99.99,Weather View 32 v60,2013-07-08 22:00:00,
2013-07-08 17:10:00,82.0,66.7,29.97,North,0,4.0,6.0,60,0.00,,,-99.99,Weather View 32 v60,2013-07-08 22:10:00,
2013-07-08 17:25:00,82.0,67.6,29.96,NNW,338,1.0,7.0,62,0.00,,,-99.99,Weather View 32 v60,2013-07-08 22:25:00,
2013-07-08 17:30:00,83.0,68.1,29.96,NNW,338,3.0,7.0,61,0.00,,,-99.99,Weather View 32 v60,2013-07-08 22:30:00,
2013-07-08 17:36:00,83.0,68.1,29.96,SE,135,3.0,7.0,61,0.00,,,-99.99,Weather View 32 v60,2013-07-08 22:36:00,
2013-07-08 17:41:00,83.0,68.1,29.96,North,0,3.0,7.0,61,0.00,,,-99.99,Weather View 32 v60,2013-07-08 22:41:00,
2013-07-08 17:50:00,82.0,65.7,29.96,ENE,68,3.0,8.0,58,0.00,,,-99.99,Weather View 32 v60,2013-07-08 22:50:00,
2013-07-08 18:00:00,82.0,66.2,29.96,NNE,22,5.0,8.0,59,0.00,,,-99.99,Weather View 32 v60,2013-07-08 23:00:00,
2013-07-08 18:10:00,82.0,65.2,29.96,North,0,4.0,8.0,57,0.00,,,-99.99,Weather View 32 v60,2013-07-08 23:10:00,
2013-07-08 18:30:00,82.0,65.7,29.96,ESE,112,2.0,8.0,58,0.00,,,-99.99,Weather View 32 v60,2013-07-08 23:30:00,
2013-07-08 18:35:00,81.0,64.8,29.96,East,90,2.0,8.0,58,0.00,,,-99.99,Weather View 32 v60,2013-07-08 23:35:00,
2013-07-08 18:50:00,79.0,64.3,29.96,SW,225,1.0,7.0,61,0.00,,,-99.99,Weather View 32 v60,2013-07-08 23:50:00,
2013-07-08 18:56:00,78.0,63.9,29.96,ESE,112,1.0,7.0,62,0.00,,,-99.99,Weather View 32 v60,2013-07-08 23:56:00,
2013-07-08 19:10:00,78.0,65.2,29.96,WSW,248,1.0,6.0,65,0.00,,,-99.99,Weather View 32 v60,2013-07-09 00:10:00,
2013-07-08 19:15:00,78.0,65.7,29.96,WSW,248,1.0,6.0,66,0.00,,,-99.99,Weather View 32 v60,2013-07-09 00:15:00,
2013-07-08 19:25:00,78.0,66.1,29.96,SW,225,0.0,5.0,67,0.00,,,-99.99,Weather View 32 v60,2013-07-09 00:25:00,
2013-07-08 19:35:00,78.0,66.1,29.96,WSW,248,0.0,5.0,67,0.00,,,-99.99,Weather View 32 v60,2013-07-09 00:35:00,
2013-07-08 19:50:00,77.0,65.2,29.96,SW,225,1.0,4.0,67,0.00,,,-99.99,Weather View 32 v60,2013-07-09 00:50:00,
2013-07-08 19:55:00,77.0,65.2,29.96,South,180,2.0,4.0,67,0.00,,,-99.99,Weather View 32 v60,2013-07-09 00:55:00,
2013-07-08 20:05:00,77.0,65.2,29.96,SW,225,1.0,3.0,67,0.00,,,-99.99,Weather View 32 v60,2013-07-09 01:05:00,
2013-07-08 20:13:00,77.0,65.2,29.96,SSW,202,1.0,3.0,67,0.00,,,-99.99,Weather View 32 v60,2013-07-09 01:13:00,
2013-07-08 20:21:00,75.0,63.7,29.96,SW,225,0.0,3.0,68,0.00,,,-99.99,Weather View 32 v60,2013-07-09 01:21:00,
2013-07-08 20:30:00,74.0,63.6,29.96,SW,225,0.0,3.0,70,0.00,,,-99.99,Weather View 32 v60,2013-07-09 01:30:00,
2013-07-08 20:40:00,73.0,63.0,29.96,SW,225,1.0,3.0,71,0.00,,,-99.99,Weather View 32 v60,2013-07-09 01:40:00,
2013-07-08 20:45:00,72.0,62.4,29.96,SW,225,0.0,3.0,72,0.00,,,-99.99,Weather View 32 v60,2013-07-09 01:45:00,
2013-07-08 20:56:00,72.0,62.8,29.96,SW,225,0.0,3.0,73,0.00,,,-99.99,Weather View 32 v60,2013-07-09 01:56:00,
2013-07-08 21:05:00,71.0,62.3,29.96,SW,225,0.0,3.0,74,0.00,,,-99.99,Weather View 32 v60,2013-07-09 02:05:00,
2013-07-08 21:14:00,71.0,62.6,29.96,SW,225,1.0,3.0,75,0.00,,,-99.99,Weather View 32 v60,2013-07-09 02:14:00,
2013-07-08 21:20:00,70.0,62.1,29.96,SW,225,1.0,2.0,76,0.00,,,-99.99,Weather View 32 v60,2013-07-09 02:20:00,
2013-07-08 21:25:00,70.0,62.1,29.96,SW,225,0.0,2.0,76,0.00,,,-99.99,Weather View 32 v60,2013-07-09 02:25:00,
2013-07-08 21:35:00,69.0,61.5,29.97,SW,225,0.0,1.0,77,0.00,,,-99.99,Weather View 32 v60,2013-07-09 02:35:00,
2013-07-08 21:40:00,69.0,61.5,29.97,SW,225,0.0,1.0,77,0.00,,,-99.99,Weather View 32 v60,2013-07-09 02:40:00,
2013-07-08 21:45:00,69.0,61.8,29.97,SW,225,0.0,1.0,78,0.00,,,-99.99,Weather View 32 v60,2013-07-09 02:45:00,
2013-07-08 21:50:00,68.0,60.9,29.97,SW,225,0.0,1.0,78,0.00,,,-99.99,Weather View 32 v60,2013-07-09 02:50:00,
2013-07-08 21:55:00,68.0,60.9,29.97,SW,225,0.0,1.0,78,0.00,,,-99.99,Weather View 32 v60,2013-07-09 02:55:00,
2013-07-08 22:10:00,67.0,60.6,29.97,SW,225,0.0,1.0,80,0.00,,,-99.99,Weather View 32 v60,2013-07-09 03:10:00,
2013-07-08 22:20:00,67.0,60.6,29.97,SW,225,0.0,1.0,80,0.00,,,-99.99,Weather View 32 v60,2013-07-09 03:20:00,
2013-07-08 22:30:00,66.0,60.0,29.97,SW,225,0.0,1.0,81,0.00,,,-99.99,Weather View 32 v60,2013-07-09 03:30:00,
2013-07-08 22:35:00,66.0,60.0,29.97,SW,225,1.0,1.0,81,0.00,,,-99.99,Weather View 32 v60,2013-07-09 03:35:00,
2013-07-08 22:45:00,66.0,60.0,29.97,SW,225,0.0,2.0,81,0.00,,,-99.99,Weather View 32 v60,2013-07-09 03:45:00,
2013-07-08 22:51:00,66.0,60.3,29.98,WSW,248,0.0,2.0,82,0.00,,,-99.99,Weather View 32 v60,2013-07-09 03:51:00,
2013-07-08 23:01:00,65.0,59.4,29.98,West,270,0.0,2.0,82,0.00,,,-99.99,Weather View 32 v60,2013-07-09 04:01:00,
2013-07-08 23:10:00,65.0,59.4,29.99,SW,225,0.0,2.0,82,0.00,,,-99.99,Weather View 32 v60,2013-07-09 04:10:00,
2013-07-08 23:15:00,65.0,59.7,29.99,SW,225,0.0,2.0,83,0.00,,,-99.99,Weather View 32 v60,2013-07-09 04:15:00,
2013-07-08 23:25:00,65.0,59.7,29.99,SW,225,0.0,2.0,83,0.00,,,-99.99,Weather View 32 v60,2013-07-09 04:25:00,
2013-07-08 23:30:00,65.0,59.7,29.99,SW,225,0.0,2.0,83,0.00,,,-99.99,Weather View 32 v60,2013-07-09 04:30:00,
2013-07-08 23:40:00,65.0,59.7,29.99,SSW,202,0.0,1.0,83,0.00,,,-99.99,Weather View 32 v60,2013-07-09 04:40:00,
2013-07-08 23:45:00,65.0,60.0,29.99,SSW,202,0.0,0.0,84,0.00,,,-99.99,Weather View 32 v60,2013-07-09 04:45:00,
2013-07-08 23:50:00,65.0,60.0,29.98,SSW,202,0.0,0.0,84,0.00,,,-99.99,Weather View 32 v60,2013-07-09 04:50:00,
2013-07-08 23:55:00,65.0,60.0,29.98,SW,225,0.0,0.0,84,0.00,,,-99.99,Weather View 32 v60,2013-07-09 04:55:00,